Total_Precipitation_Accumulation
0.00 0.00 0.00 0.00 0.00 0.00 0.00 0.00 0.00 0.00 0.00 0.00 0.00 0.00 0.00 0.00 0.00 0.00 0.00 0.02 0.02 0.04 0.03 0.06 0.10 0.13 0.15 0.13 0.13 0.15 0.17 0.16 0.17 0.18 0.16 0.11 0.08 0.07 0.07 0.09 0.07 0.04 0.04
0.00 0.00 0.00 0.00 0.00 0.00 0.00 0.00 0.00 0.00 0.00 0.00 0.00 0.00 0.00 0.00 0.00 0.00 0.00 0.02 0.04 0.02 0.04 0.07 0.16 0.19 0.17 0.15 0.08 0.07 0.07 0.06 0.11 0.23 0.39 0.29 0.18 0.14 0.11 0.07 0.07 0.04 0.01
0.00 0.00 0.00 0.00 0.00 0.00 0.00 0.00 0.00 0.00 0.00 0.00 0.00 0.00 0.00 0.00 0.00 0.00 0.00 0.00 0.00 0.03 0.03 0.05 0.14 0.19 0.19 0.14 0.07 0.03 0.04 0.03 0.04 0.09 0.16 0.27 0.29 0.26 0.20 0.15 0.13 0.10 0.05
0.00 0.00 0.00 0.00 0.00 0.00 0.00 0.00 0.00 0.00 0.00 0.00 0.00 0.00 0.00 0.00 0.00 0.00 0.00 0.00 0.00 0.01 0.07 0.10 0.14 0.18 0.21 0.19 0.15 0.11 0.06 0.04 0.03 0.04 0.09 0.16 0.20 0.25 0.24 0.22 0.21 0.17 0.15
0.00 0.00 0.00 0.00 0.00 0.00 0.00 0.00 0.00 0.00 0.00 0.00 0.00 0.00 0.00 0.00 0.00 0.00 0.00 0.00 0.00 0.01 0.02 0.07 0.14 0.22 0.31 0.41 0.33 0.23 0.19 0.16 0.09 0.06 0.07 0.12 0.16 0.21 0.23 0.28 0.29 0.29 0.31
0.00 0.00 0.00 0.00 0.00 0.00 0.00 0.00 0.00 0.00 0.00 0.00 0.00 0.00 0.00 0.00 0.00 0.00 0.00 0.00 0.00 0.00 0.00 0.01 0.09 0.15 0.31 0.46 0.48 0.35 0.27 0.18 0.15 0.13 0.12 0.10 0.12 0.20 0.22 0.27 0.34 0.33 0.34
0.00 0.00 0.00 0.00 0.00 0.00 0.00 0.00 0.00 0.00 0.00 0.00 0.00 0.00 0.00 0.00 0.00 0.00 0.00 0.00 0.00 0.00 0.00 0.01 0.04 0.11 0.27 0.40 0.44 0.34 0.27 0.16 0.13 0.16 0.14 0.13 0.18 0.21 0.22 0.28 0.35 0.36 0.38
0.00 0.00 0.00 0.00 0.00 0.00 0.00 0.00 0.00 0.00 0.00 0.00 0.01 0.00 0.00 0.00 0.00 0.00 0.00 0.00 0.00 0.00 0.00 0.02 0.05 0.09 0.24 0.35 0.36 0.37 0.33 0.29 0.18 0.19 0.26 0.28 0.20 0.22 0.22 0.35 0.33 0.33 0.37
0.00 0.00 0.00 0.00 0.00 0.00 0.00 0.00 0.00 0.00 0.00 0.00 0.00 0.03 0.04 0.02 0.00 0.00 0.00 0.00 0.00 0.00 0.01 0.02 0.06 0.11 0.16 0.22 0.28 0.33 0.34 0.38 0.49 0.48 0.49 0.51 0.45 0.37 0.38 0.42 0.40 0.39 0.36
0.00 0.00 0.00 0.00 0.00 0.00 0.00 0.00 0.00 0.00 0.01 0.00 0.00 0.00 0.03 0.05 0.05 0.02 0.00 0.00 0.00 0.00 0.02 0.02 0.03 0.08 0.13 0.55 1.08 1.19 1.25 1.25 1.21 1.38 1.42 1.31 1.25 1.33 1.45 1.33 0.90 0.53 0.40
0.00 0.00 0.00 0.00 0.00 0.00 0.00 0.00 0.00 0.01 0.01 0.02 0.02 0.02 0.01 0.01 0.04 0.07 0.02 0.00 0.00 0.00 0.02 0.03 0.04 0.05 0.08 0.09 0.25 0.73 0.98 1.37 1.35 1.34 1.41 1.26 1.09 1.11 1.28 1.77 1.82 1.30 0.82
0.00 0.00 0.00 0.00 0.00 0.00 0.01 0.00 0.00 0.01 0.01 0.01 0.02 0.02 0.03 0.05 0.04 0.07 0.05 0.02 0.01 0.00 0.07 0.06 0.04 0.06 0.06 0.05 0.10 0.22 0.33 0.35 0.64 0.72 0.71 0.72 0.64 0.61 0.60 0.59 0.84 1.09 0.86
0.00 0.00 0.00 0.00 0.00 0.00 0.00 0.00 0.00 0.01 0.02 0.02 0.02 0.03 0.03 0.04 0.06 0.07 0.07 0.04 0.02 0.02 0.07 0.06 0.05 0.05 0.07 0.07 0.11 0.16 0.18 0.18 0.16 0.34 0.42 0.41 0.33 0.35 0.35 0.36 0.34 0.34 0.29
0.00 0.00 0.00 0.00 0.00 0.00 0.00 0.00 0.00 0.00 0.01 0.02 0.02 0.02 0.03 0.04 0.05 0.08 0.12 0.11 0.05 0.05 0.10 0.09 0.07 0.07 0.10 0.15 0.19 0.18 0.11 0.18 0.18 0.17 0.21 0.32 0.47 0.47 0.41 0.40 0.37 0.35 0.36
0.00 0.00 0.00 0.00 0.00 0.00 0.00 0.00 0.00 0.00 0.00 0.01 0.02 0.02 0.03 0.03 0.04 0.06 0.10 0.14 0.17 0.11 0.11 0.07 0.10 0.09 0.10 0.12 0.22 0.11 0.08 0.24 0.28 0.31 0.33 0.33 0.35 0.47 0.64 0.65 0.56 0.54 0.50
0.00 0.00 0.00 0.00 0.00 0.00 0.00 0.00 0.00 0.00 0.00 0.00 0.01 0.02 0.03 0.03 0.03 0.04 0.07 0.09 0.14 0.18 0.21 0.13 0.12 0.11 0.08 0.08 0.19 0.10 0.11 0.15 0.38 0.55 0.56 0.77 0.92 0.74 0.57 0.73 0.93 0.82 0.65
0.00 0.00 0.00 0.00 0.00 0.00 0.00 0.00 0.00 0.00 0.00 0.00 0.01 0.01 0.01 0.01 0.02 0.03 0.04 0.06 0.09 0.14 0.26 0.18 0.12 0.13 0.11 0.10 0.11 0.09 0.08 0.03 0.08 0.22 0.42 0.56 0.89 1.51 1.41 1.06 1.04 1.32 1.27
0.00 0.00 0.00 0.00 0.00 0.00 0.00 0.00 0.00 0.00 0.00 0.00 0.01 0.01 0.02 0.01 0.01 0.01 0.02 0.04 0.07 0.11 0.19 0.21 0.17 0.16 0.17 0.16 0.16 0.13 0.09 0.06 0.05 0.10 0.10 0.16 0.33 0.68 1.19 1.46 1.32 1.30 1.45
0.00 0.00 0.00 0.00 0.00 0.00 0.00 0.00 0.00 0.00 0.00 0.00 0.01 0.01 0.02 0.01 0.02 0.03 0.04 0.04 0.06 0.07 0.11 0.16 0.18 0.16 0.15 0.17 0.21 0.20 0.13 0.07 0.05 0.06 0.04 0.06 0.12 0.25 0.47 0.84 1.28 1.39 1.31
0.00 0.00 0.00 0.00 0.00 0.00 0.00 0.00 0.00 0.00 0.00 0.00 0.00 0.00 0.00 0.01 0.02 0.02 0.04 0.07 0.10 0.09 0.11 0.12 0.17 0.19 0.20 0.23 0.15 0.16 0.16 0.14 0.11 0.08 0.08 0.08 0.13 0.24 0.31 0.39 0.47 0.70 0.99
0.00 0.00 0.00 0.00 0.00 0.00 0.00 0.00 0.00 0.00 0.00 0.00 0.00 0.00 0.00 0.00 0.01 0.01 0.01 0.03 0.07 0.13 0.14 0.14 0.16 0.19 0.24 0.26 0.34 0.35 0.25 0.23 0.21 0.22 0.21 0.17 0.17 0.22 0.26 0.24 0.34 0.41 0.48
0.00 0.00 0.00 0.00 0.00 0.00 0.00 0.00 0.00 0.00 0.00 0.00 0.00 0.00 0.00 0.00 0.00 0.00 0.01 0.01 0.03 0.07 0.11 0.13 0.16 0.18 0.23 0.25 0.25 0.25 0.25 0.23 0.23 0.25 0.33 0.35 0.31 0.30 0.38 0.47 0.44 0.45 0.47
0.00 0.00 0.00 0.00 0.00 0.00 0.00 0.00 0.00 0.00 0.00 0.00 0.00 0.00 0.00 0.00 0.00 0.00 0.00 0.00 0.01 0.03 0.06 0.07 0.06 0.08 0.09 0.09 0.10 0.12 0.12 0.13 0.20 0.23 0.20 0.22 0.26 0.31 0.37 0.39 0.47 0.54 0.58
0.00 0.00 0.00 0.00 0.00 0.00 0.00 0.00 0.00 0.00 0.00 0.00 0.00 0.00 0.00 0.00 0.00 0.00 0.00 0.00 0.00 0.00 0.00 0.02 0.04 0.04 0.02 0.01 0.02 0.03 0.05 0.05 0.02 0.02 0.01 0.02 0.03 0.10 0.13 0.11 0.12 0.16 0.21
0.00 0.00 0.00 0.00 0.00 0.00 0.00 0.00 0.00 0.00 0.00 0.00 0.00 0.00 0.00 0.00 0.00 0.00 0.00 0.00 0.00 0.00 0.00 0.00 0.00 0.00 0.01 0.00 0.00 0.00 0.01 0.00 0.02 0.02 0.01 0.01 0.01 0.02 0.08 0.03 0.01 0.01 0.02
0.00 0.00 0.00 0.00 0.00 0.00 0.00 0.00 0.00 0.00 0.00 0.00 0.00 0.00 0.00 0.00 0.00 0.00 0.00 0.00 0.00 0.00 0.00 0.00 0.00 0.00 0.00 0.00 0.00 0.00 0.00 0.00 0.00 0.00 0.00 0.01 0.00 0.00 0.02 0.00 0.00 0.00 0.00